ELFIN-A

Last updated on Mon Sep 19 2022 00:03:39 GMT+0000 (Coordinated Universal Time)

1 43617U 18070E 22260.64820158 .15847175 28053-6 19970-3 0 9994 2 43617 92.9902 141.8911 0011446 219.5078 140.5403 16.49147461226007

Satellite not in orbit